Location: Dębowa Łąka
(53.2556°N, 19.0965°E)
Time: 15:48:19
(UTC+02:00)

ISS - Visible Passes

Search period start: 22 September 2018 00:00
Search period end: 02 October 2018 00:00
Orbit: 403 x 408 km, 51.6° (Epoch: 22 September)

Date Brightness Start Highest point End Pass type
(mag) Time Alt. Az. Time Alt. Az. Time Alt. Az.
22 Sep -1.3 20:28:34 10° S 20:28:51 11° S 20:28:51 11° S visible
23 Sep -1.6 19:38:03 10° SSE 19:39:10 11° SE 19:39:34 11° SE visible
23 Sep -1.1 21:11:55 10° SW 21:12:16 12° SW 21:12:16 12° SW visible
24 Sep -2.6 20:20:21 10° SSW 20:22:49 27° SSE 20:22:49 27° SSE visible
25 Sep -2.2 19:29:00 10° SSW 19:31:28 20° SSE 19:33:12 14° ESE visible
25 Sep -2.0 21:04:18 10° WSW 21:05:53 25° SW 21:05:53 25° SW visible
26 Sep -3.3 20:12:32 10° SW 20:15:40 42° SSE 20:16:08 39° SE visible
26 Sep -0.6 21:48:42 10° W 21:48:48 11° W 21:48:48 11° W visible
27 Sep -2.8 19:20:52 10° SW 19:23:50 31° SSE 19:26:17 13° E visible
27 Sep -2.6 20:56:47 10° WSW 20:58:57 37° WSW 20:58:57 37° WSW visible
28 Sep -3.7 20:04:54 10° WSW 20:08:09 57° SSE 20:09:02 40° ESE visible
28 Sep -0.8 21:41:15 10° W 21:41:42 13° W 21:41:42 13° W visible
29 Sep -3.3 19:13:03 10° WSW 19:16:14 46° SSE 19:19:03 13° E visible
29 Sep -2.9 20:49:17 10° W 20:51:43 44° WSW 20:51:43 44° WSW visible
30 Sep -3.8 19:57:20 10° W 20:00:37 66° S 20:01:42 38° ESE visible
30 Sep -0.8 21:33:46 10° W 21:34:21 14° W 21:34:21 14° W visible
01 Oct -3.6 19:05:23 10° WSW 19:08:40 60° S 19:11:39 12° E visible
01 Oct -2.9 20:41:46 10° W 20:44:18 45° WSW 20:44:18 45° WSW visible
